ヴァイサラ第1彗星

40P/Vaisala 1 (2004)

English version
Home page
Total 6,336 html files since Dec. 4, 1995
Updated on August 7, 2004

---------------------------------------------------------------------

・ プロフィール

・ 軌道要素

Epoch 2004 Feb. 5.0 TT = JDT 2453040.5  
T 2004 Jan. 22.89679 TT                                 Muraoka 
q   1.7959140            (2000.0)            P               Q
n   0.09102119     Peri.   47.18935     -0.98890482     +0.04331148
a   4.8944931      Node   134.73357     -0.07958257     -0.96216821
e   0.6330746      Incl.   11.53852     +0.12543475     -0.26899153
P  10.83
From 299 observations 1939-1993, mean residual 0".99.  Nongravitational
   parameters A1 = -0.01 +/- 0.02, A2 = -0.0108 +/- 0.0003.

・ 星図

・ 光度変化

        m1 = 10.5 + 5 logΔ + 15.0 log r

---------------------------------------------------------------------

軌道要素は村岡健治氏の計算によるものです。
星図は StellaNavigator Ver.2.0 for Windows (アストロアーツ 編著 / アスキー出版局刊) で作成したものです。
光度グラフはComet for Windowsで作成したものです。

---------------------------------------------------------------------

Copyright(C) 1995-2008 Seiichi Yoshida (comet@aerith.net). All rights reserved.